Guadassuar, Spain
Current Conditions -  °F | °C
As of 7:00 AM on Wednesday 22 Oct 2014 (Local Time) from LEVC Reporting Station
Clear Clear  
Wind Chill: 72°   Ceiling: Unl
Heat Index: 72°   Visibility: 6mi
Dew Point: 52°   Wind: 12mph
Humidity: 50%   Direction: 330°NNW
Pressure: 30.15"   Gusts: NA
Location:  39.18°N, 0.47°W
Report Text: LEVC 220500Z 33010KT 300V360 CAVOK 22/11 Q1021 NOSIG
Loading
Personal Weather Stations






























Interactive Weather Map
Tropical Storm Tracking
New forecast layout! Learn more

10-Day Weather Forecast

Advertisements
Track Severe Weather on mobile